OCN7YZ EDDF-LGIR

Flight info

Callsign OCN7YZ
Flight time 3h 4m
Altitude 37000
Route CINDY2D CINDY Z74 LAMPU DCT NOMBO Y161 MAH DCT LATLO DCT OBEDI DCT TEBLI DCT TIVNU DCT RETRA DCT PINDO DCT PIKOS DCT KEA UL607 GIVIS/N0393F230 T514 XAVIS XAVIS1A
Aircraft A320/M-SDE3FGHIRWY/LB1

Departure

Time 2026-04-18 06:29
Airport Frankfurt Main Airport (EDDF)

Arrival

Time 2026-04-18 09:33
Airport Heraklion International Nikos Kazantzakis Airport (LGIR)
Time Latitude Longitude Altitude Speed Heading
2026-04-18 06:12 50.03596 8.53729 352 ft 0 kts 159°
2026-04-18 06:25 50.03595 8.53730 341 ft 1 kts 158°
2026-04-18 06:25 50.03590 8.53733 336 ft 1 kts 156°
2026-04-18 06:25 50.03580 8.53739 337 ft 5 kts 160°
2026-04-18 06:26 50.03531 8.53752 340 ft 7 kts 196°
2026-04-18 06:26 50.03509 8.53692 336 ft 6 kts 253°
2026-04-18 06:26 50.03496 8.53632 338 ft 5 kts 250°
2026-04-18 06:26 50.03483 8.53575 337 ft 8 kts 250°
2026-04-18 06:27 50.03441 8.53460 334 ft 13 kts 215°
2026-04-18 06:27 50.03371 8.53497 336 ft 11 kts 131°
2026-04-18 06:27 50.03325 8.53587 336 ft 9 kts 125°
2026-04-18 06:27 50.03310 8.53672 339 ft 7 kts 83°
2026-04-18 06:28 50.03325 8.53742 338 ft 11 kts 70°
2026-04-18 06:28 50.03424 8.54146 349 ft 75 kts 69°
2026-04-18 06:28 50.03673 8.55196 348 ft 133 kts 70°
2026-04-18 06:28 50.04044 8.56765 397 ft 173 kts 69°
2026-04-18 06:29 50.04458 8.58520 1056 ft 172 kts 70°
2026-04-18 06:29 50.04839 8.60295 1807 ft 173 kts 72°
2026-04-18 06:29 50.05202 8.62068 2448 ft 177 kts 72°
2026-04-18 06:29 50.05614 8.64016 2743 ft 200 kts 71°
2026-04-18 06:30 50.06093 8.66199 3050 ft 227 kts 71°
2026-04-18 06:30 50.06633 8.68610 3641 ft 241 kts 71°
2026-04-18 06:30 50.07167 8.71068 4596 ft 238 kts 73°
2026-04-18 06:30 50.07329 8.73592 5418 ft 238 kts 104°
2026-04-18 06:31 50.06514 8.75775 6213 ft 237 kts 141°
2026-04-18 06:31 50.04993 8.76718 6866 ft 240 kts 180°
2026-04-18 06:31 50.03369 8.76227 7670 ft 241 kts 198°
2026-04-18 06:31 50.01756 8.75468 8484 ft 243 kts 197°
2026-04-18 06:32 50.00100 8.74783 9154 ft 255 kts 195°
2026-04-18 06:32 49.98297 8.74107 9584 ft 275 kts 194°
2026-04-18 06:32 49.96400 8.73431 10294 ft 283 kts 194°
2026-04-18 06:32 49.94439 8.72739 10641 ft 305 kts 194°
2026-04-18 06:33 49.92291 8.71978 10872 ft 328 kts 194°
2026-04-18 06:33 49.90002 8.71155 11257 ft 343 kts 194°
2026-04-18 06:33 49.87619 8.70580 11877 ft 352 kts 180°
2026-04-18 06:33 49.85235 8.71512 12510 ft 362 kts 153°
2026-04-18 06:34 49.83293 8.74043 13184 ft 371 kts 127°
2026-04-18 06:34 49.82099 8.77619 13854 ft 378 kts 112°
2026-04-18 06:34 49.81252 8.81503 14472 ft 383 kts 107°
2026-04-18 06:34 49.80562 8.85500 15088 ft 387 kts 104°
2026-04-18 06:35 49.79912 8.89565 15714 ft 391 kts 104°
2026-04-18 06:35 49.79236 8.93660 16320 ft 395 kts 105°
2026-04-18 06:35 49.78505 8.97772 16914 ft 399 kts 106°
2026-04-18 06:35 49.77717 9.01912 17509 ft 402 kts 107°
2026-04-18 06:36 49.76908 9.05958 18081 ft 406 kts 108°
2026-04-18 06:36 49.76039 9.10253 18640 ft 410 kts 107°
2026-04-18 06:36 49.75229 9.14437 19123 ft 413 kts 110°
2026-04-18 06:36 49.74522 9.17240 19452 ft 415 kts 115°
2026-04-18 06:37 49.72600 9.22355 20119 ft 417 kts 128°
2026-04-18 06:37 49.70737 9.25801 20621 ft 419 kts 132°
2026-04-18 06:37 49.68812 9.29210 21119 ft 422 kts 133°
2026-04-18 06:37 49.66862 9.32628 21601 ft 425 kts 133°
2026-04-18 06:38 49.65536 9.34943 21921 ft 427 kts 133°
2026-04-18 06:38 49.63559 9.38390 22381 ft 430 kts 134°
2026-04-18 06:38 49.61378 9.41551 22838 ft 431 kts 143°
2026-04-18 06:38 49.58904 9.44141 23282 ft 432 kts 152°
2026-04-18 06:39 49.56304 9.46503 23723 ft 435 kts 152°
2026-04-18 06:39 49.53726 9.48854 24094 ft 438 kts 152°
2026-04-18 06:39 49.51099 9.51254 24474 ft 440 kts 152°
2026-04-18 06:39 49.48462 9.53668 24854 ft 442 kts 152°
2026-04-18 06:40 49.45815 9.56090 25230 ft 444 kts 152°
2026-04-18 06:40 49.43148 9.58520 25592 ft 446 kts 152°
2026-04-18 06:40 49.40469 9.60954 25954 ft 449 kts 152°
2026-04-18 06:40 49.37774 9.63398 26314 ft 451 kts 152°
2026-04-18 06:41 49.35093 9.65909 26669 ft 454 kts 148°
2026-04-18 06:41 49.32616 9.68953 27023 ft 459 kts 139°
2026-04-18 06:41 49.30340 9.72418 27363 ft 462 kts 137°
2026-04-18 06:41 49.28062 9.75908 27721 ft 464 kts 137°
2026-04-18 06:42 49.25773 9.79401 28055 ft 466 kts 137°
2026-04-18 06:42 49.23467 9.82907 28379 ft 468 kts 137°
2026-04-18 06:42 49.21151 9.86425 28702 ft 470 kts 137°
2026-04-18 06:42 49.18822 9.89959 29007 ft 472 kts 137°
2026-04-18 06:43 49.16483 9.93500 29316 ft 474 kts 137°
2026-04-18 06:43 49.14138 9.97049 29608 ft 476 kts 137°
2026-04-18 06:43 49.11782 10.00613 29911 ft 477 kts 137°
2026-04-18 06:43 49.09427 10.04168 30332 ft 476 kts 137°
2026-04-18 06:44 49.07074 10.07712 30692 ft 475 kts 137°
2026-04-18 06:44 49.04713 10.11232 31050 ft 473 kts 138°
2026-04-18 06:44 49.02328 10.14673 31405 ft 472 kts 139°
2026-04-18 06:44 48.99952 10.18017 31754 ft 471 kts 140°
2026-04-18 06:45 48.97529 10.21382 32108 ft 470 kts 140°
2026-04-18 06:45 48.95120 10.24722 32465 ft 469 kts 140°
2026-04-18 06:45 48.92710 10.28079 32824 ft 468 kts 139°
2026-04-18 06:45 48.90322 10.31432 33188 ft 467 kts 139°
2026-04-18 06:46 48.87942 10.34793 33544 ft 466 kts 139°
2026-04-18 06:46 48.85570 10.38146 33889 ft 466 kts 139°
2026-04-18 06:46 48.83203 10.41490 34242 ft 465 kts 139°
2026-04-18 06:46 48.80880 10.44907 34530 ft 465 kts 136°
2026-04-18 06:47 48.78634 10.48424 34817 ft 465 kts 135°
2026-04-18 06:47 48.76432 10.52012 35091 ft 465 kts 134°
2026-04-18 06:47 48.74251 10.55625 35353 ft 464 kts 134°
2026-04-18 06:47 48.72065 10.59234 35610 ft 464 kts 134°
2026-04-18 06:48 48.69871 10.62810 35864 ft 464 kts 134°
2026-04-18 06:48 48.67655 10.66370 36106 ft 464 kts 135°
2026-04-18 06:48 48.65431 10.69904 36339 ft 464 kts 135°
2026-04-18 06:48 48.63198 10.73424 36577 ft 463 kts 135°
2026-04-18 06:49 48.60964 10.76930 36812 ft 463 kts 135°
2026-04-18 06:49 48.58737 10.80427 37040 ft 463 kts 135°
2026-04-18 06:49 48.56513 10.83947 37192 ft 464 kts 134°
2026-04-18 06:50 48.52079 10.91037 37230 ft 464 kts 134°
2026-04-18 06:50 48.47685 10.98082 37209 ft 464 kts 134°
2026-04-18 06:51 48.43210 11.05108 37220 ft 464 kts 135°
2026-04-18 06:51 48.38703 11.12071 37216 ft 464 kts 135°
2026-04-18 06:52 48.34194 11.19040 37210 ft 464 kts 135°
2026-04-18 06:52 48.29692 11.26008 37207 ft 465 kts 135°
2026-04-18 06:53 48.25533 11.33403 37203 ft 465 kts 122°
2026-04-18 06:53 48.22324 11.41822 37203 ft 465 kts 119°
2026-04-18 06:54 48.19152 11.50210 37204 ft 465 kts 119°
2026-04-18 06:54 48.15939 11.58647 37213 ft 465 kts 120°
2026-04-18 06:55 48.12726 11.67059 37201 ft 466 kts 119°
2026-04-18 06:55 48.09511 11.75469 37202 ft 466 kts 119°
2026-04-18 06:56 48.06285 11.83880 37214 ft 466 kts 119°
2026-04-18 06:56 48.03073 11.92225 37202 ft 466 kts 119°
2026-04-18 06:57 47.99834 12.00603 37197 ft 466 kts 119°
2026-04-18 06:57 47.94964 12.13164 37200 ft 466 kts 119°
2026-04-18 06:58 47.91715 12.21518 37208 ft 466 kts 119°
2026-04-18 06:58 47.88454 12.29867 37203 ft 466 kts 119°
2026-04-18 06:59 47.85193 12.38204 37194 ft 466 kts 119°
2026-04-18 06:59 47.81919 12.46523 37194 ft 466 kts 119°
2026-04-18 07:00 47.78629 12.54840 37202 ft 466 kts 119°
2026-04-18 07:00 47.75345 12.63132 37196 ft 466 kts 119°
2026-04-18 07:01 47.72087 12.71368 37206 ft 466 kts 118°
2026-04-18 07:01 47.68722 12.79578 37207 ft 466 kts 124°
2026-04-18 07:02 47.64341 12.86689 37213 ft 468 kts 134°
2026-04-18 07:02 47.59729 12.93492 37203 ft 468 kts 134°
2026-04-18 07:03 47.55111 13.00294 37198 ft 468 kts 134°
2026-04-18 07:03 47.50490 13.07101 37196 ft 468 kts 134°
2026-04-18 07:04 47.45866 13.13890 37194 ft 469 kts 134°
2026-04-18 07:04 47.41234 13.20667 37201 ft 469 kts 133°
2026-04-18 07:05 47.36624 13.27396 37205 ft 469 kts 133°
2026-04-18 07:05 47.31985 13.34175 37208 ft 469 kts 132°
2026-04-18 07:06 47.27593 13.41257 37212 ft 468 kts 128°
2026-04-18 07:06 47.23378 13.48563 37210 ft 468 kts 128°
2026-04-18 07:07 47.19121 13.55834 37211 ft 469 kts 128°
2026-04-18 07:07 47.14794 13.63007 37210 ft 469 kts 129°
2026-04-18 07:08 47.10442 13.70148 37213 ft 469 kts 129°
2026-04-18 07:08 47.06117 13.77260 37204 ft 470 kts 129°
2026-04-18 07:09 47.01773 13.84419 37209 ft 470 kts 129°
2026-04-18 07:09 46.97420 13.91575 37218 ft 470 kts 128°
2026-04-18 07:10 46.93063 13.98720 37218 ft 470 kts 129°
2026-04-18 07:10 46.88688 14.05848 37218 ft 470 kts 129°
2026-04-18 07:11 46.84310 14.12965 37230 ft 471 kts 128°
2026-04-18 07:11 46.79932 14.20083 37239 ft 471 kts 128°
2026-04-18 07:12 46.75574 14.27145 37242 ft 471 kts 128°
2026-04-18 07:12 46.71181 14.34243 37246 ft 472 kts 128°
2026-04-18 07:13 46.66779 14.41336 37248 ft 472 kts 128°
2026-04-18 07:13 46.62369 14.48424 37243 ft 472 kts 128°
2026-04-18 07:14 46.57952 14.55504 37235 ft 473 kts 128°
2026-04-18 07:14 46.53531 14.62580 37229 ft 473 kts 128°
2026-04-18 07:15 46.49099 14.69643 37216 ft 473 kts 128°
2026-04-18 07:15 46.44662 14.76697 37204 ft 474 kts 128°
2026-04-18 07:16 46.40218 14.83748 37207 ft 474 kts 128°
2026-04-18 07:16 46.35759 14.90795 37204 ft 474 kts 128°
2026-04-18 07:17 46.31303 14.97818 37208 ft 474 kts 128°
2026-04-18 07:17 46.26835 15.04849 37204 ft 475 kts 128°
2026-04-18 07:18 46.22395 15.11822 37206 ft 475 kts 128°
2026-04-18 07:18 46.17912 15.18841 37203 ft 475 kts 128°
2026-04-18 07:19 46.13430 15.25846 37210 ft 476 kts 128°
2026-04-18 07:19 46.08931 15.32861 37209 ft 476 kts 128°
2026-04-18 07:20 46.04423 15.39857 37197 ft 476 kts 128°
2026-04-18 07:20 45.99902 15.46860 37208 ft 478 kts 128°
2026-04-18 07:21 45.95373 15.53848 37211 ft 478 kts 128°
2026-04-18 07:21 45.90842 15.60846 37211 ft 479 kts 128°
2026-04-18 07:22 45.86297 15.67838 37212 ft 479 kts 128°
2026-04-18 07:22 45.81772 15.74778 37211 ft 479 kts 128°
2026-04-18 07:23 45.77212 15.81758 37188 ft 480 kts 128°
2026-04-18 07:23 45.72644 15.88728 37193 ft 480 kts 128°
2026-04-18 07:24 45.68067 15.95694 37191 ft 480 kts 128°
2026-04-18 07:24 45.63485 16.02645 37194 ft 480 kts 128°
2026-04-18 07:25 45.58893 16.09597 37193 ft 480 kts 128°
2026-04-18 07:25 45.54304 16.16528 37194 ft 481 kts 128°
2026-04-18 07:26 45.49707 16.23455 37195 ft 481 kts 128°
2026-04-18 07:26 45.45108 16.30370 37196 ft 481 kts 129°
2026-04-18 07:27 45.40496 16.37277 37191 ft 481 kts 129°
2026-04-18 07:27 45.35880 16.44177 37191 ft 481 kts 129°
2026-04-18 07:28 45.31254 16.51068 37184 ft 482 kts 129°
2026-04-18 07:28 45.27406 16.56796 37181 ft 482 kts 129°
2026-04-18 07:29 45.22769 16.63675 37183 ft 482 kts 129°
2026-04-18 07:29 45.18156 16.70587 37179 ft 482 kts 127°
2026-04-18 07:30 45.13760 16.77727 37180 ft 480 kts 125°
2026-04-18 07:30 45.09448 16.84945 37178 ft 480 kts 126°
2026-04-18 07:31 45.05076 16.92112 37174 ft 481 kts 126°
2026-04-18 07:31 45.00689 16.99167 37171 ft 481 kts 127°
2026-04-18 07:32 44.96031 17.05974 37165 ft 486 kts 137°
2026-04-18 07:32 44.90369 17.11292 37158 ft 490 kts 145°
2026-04-18 07:33 44.84571 17.16368 37159 ft 490 kts 145°
2026-04-18 07:33 44.78774 17.21420 37160 ft 490 kts 146°
2026-04-18 07:34 44.72968 17.26464 37162 ft 490 kts 146°
2026-04-18 07:34 44.67165 17.31501 37162 ft 490 kts 146°
2026-04-18 07:35 44.61364 17.36538 37163 ft 490 kts 146°
2026-04-18 07:35 44.55562 17.41560 37158 ft 490 kts 146°
2026-04-18 07:36 44.49790 17.46529 37153 ft 490 kts 146°
2026-04-18 07:36 44.43980 17.51525 37152 ft 490 kts 146°
2026-04-18 07:37 44.38178 17.56514 37148 ft 490 kts 146°
2026-04-18 07:37 44.32369 17.61494 37142 ft 490 kts 146°
2026-04-18 07:38 44.26551 17.66460 37140 ft 490 kts 146°
2026-04-18 07:38 44.20735 17.71409 37135 ft 490 kts 146°
2026-04-18 07:39 44.14911 17.76352 37133 ft 490 kts 146°
2026-04-18 07:39 44.09093 17.81301 37134 ft 490 kts 146°
2026-04-18 07:40 44.03266 17.86235 37127 ft 490 kts 147°
2026-04-18 07:40 43.97437 17.91146 37124 ft 490 kts 147°
2026-04-18 07:41 43.91613 17.96053 37129 ft 490 kts 147°
2026-04-18 07:41 43.85789 18.00956 37129 ft 490 kts 147°
2026-04-18 07:42 43.79953 18.05849 37129 ft 490 kts 147°
2026-04-18 07:42 43.74121 18.10724 37120 ft 490 kts 147°
2026-04-18 07:43 43.68283 18.15597 37124 ft 490 kts 147°
2026-04-18 07:43 43.62484 18.20435 37119 ft 490 kts 147°
2026-04-18 07:44 43.56639 18.25287 37120 ft 490 kts 147°
2026-04-18 07:44 43.50799 18.30119 37105 ft 490 kts 147°
2026-04-18 07:45 43.44957 18.34947 37103 ft 490 kts 147°
2026-04-18 07:45 43.39120 18.39767 37086 ft 489 kts 148°
2026-04-18 07:46 43.33288 18.44568 37082 ft 489 kts 148°
2026-04-18 07:46 43.27447 18.49352 37077 ft 489 kts 148°
2026-04-18 07:47 43.21613 18.54130 37070 ft 488 kts 148°
2026-04-18 07:47 43.15770 18.58915 37070 ft 488 kts 148°
2026-04-18 07:48 43.09969 18.63654 37064 ft 488 kts 148°
2026-04-18 07:48 43.04134 18.68401 37065 ft 488 kts 148°
2026-04-18 07:49 42.98301 18.73138 37061 ft 487 kts 149°
2026-04-18 07:49 42.92467 18.77869 37057 ft 487 kts 149°
2026-04-18 07:50 42.86639 18.82575 37040 ft 487 kts 149°
2026-04-18 07:50 42.80806 18.87276 37035 ft 487 kts 149°
2026-04-18 07:51 42.74976 18.91968 37030 ft 487 kts 149°
2026-04-18 07:51 42.69140 18.96664 37027 ft 487 kts 149°
2026-04-18 07:52 42.63305 19.01341 37018 ft 487 kts 149°
2026-04-18 07:52 42.57469 19.06007 37001 ft 487 kts 149°
2026-04-18 07:53 42.51621 19.10672 36996 ft 487 kts 149°
2026-04-18 07:53 42.45774 19.15327 36993 ft 488 kts 149°
2026-04-18 07:54 42.39965 19.19948 36991 ft 488 kts 149°
2026-04-18 07:54 42.34113 19.24588 36992 ft 487 kts 149°
2026-04-18 07:55 42.28260 19.29216 36994 ft 487 kts 149°
2026-04-18 07:55 42.22429 19.33881 36998 ft 486 kts 144°
2026-04-18 07:56 42.16914 19.39158 36996 ft 486 kts 143°
2026-04-18 07:56 42.11414 19.44434 37008 ft 485 kts 144°
2026-04-18 07:57 42.05899 19.49688 37008 ft 485 kts 144°
2026-04-18 07:57 42.00392 19.54915 36997 ft 484 kts 144°
2026-04-18 07:58 41.92141 19.62749 36998 ft 484 kts 144°
2026-04-18 07:59 41.86650 19.67954 36996 ft 483 kts 145°
2026-04-18 07:59 41.81190 19.73114 36988 ft 483 kts 145°
2026-04-18 08:00 41.75698 19.78279 36985 ft 482 kts 145°
2026-04-18 08:00 41.70211 19.83438 36969 ft 482 kts 145°
2026-04-18 08:01 41.64726 19.88599 36965 ft 482 kts 145°
2026-04-18 08:01 41.59235 19.93749 36965 ft 482 kts 146°
2026-04-18 08:02 41.53731 19.98880 36953 ft 482 kts 146°
2026-04-18 08:02 41.48218 20.04020 36962 ft 483 kts 146°
2026-04-18 08:03 41.42715 20.09151 36958 ft 483 kts 146°
2026-04-18 08:03 41.37203 20.14273 36966 ft 483 kts 146°
2026-04-18 08:04 41.31690 20.19375 36977 ft 483 kts 146°
2026-04-18 08:04 41.26209 20.24441 36969 ft 482 kts 146°
2026-04-18 08:05 41.20700 20.29535 36974 ft 482 kts 146°
2026-04-18 08:05 41.15187 20.34617 36993 ft 483 kts 146°
2026-04-18 08:06 41.09655 20.39703 36996 ft 483 kts 146°
2026-04-18 08:06 41.04130 20.44765 36995 ft 483 kts 146°
2026-04-18 08:07 40.98605 20.49817 36994 ft 483 kts 146°
2026-04-18 08:07 40.93113 20.54835 36992 ft 483 kts 146°
2026-04-18 08:08 40.87540 20.59911 36990 ft 483 kts 146°
2026-04-18 08:08 40.82040 20.64917 36988 ft 483 kts 146°
2026-04-18 08:09 40.76513 20.69942 36985 ft 483 kts 147°
2026-04-18 08:09 40.70981 20.74963 36992 ft 482 kts 147°
2026-04-18 08:10 40.65444 20.79963 36990 ft 482 kts 147°
2026-04-18 08:10 40.59906 20.84945 36996 ft 482 kts 147°
2026-04-18 08:11 40.54375 20.89920 36990 ft 481 kts 147°
2026-04-18 08:11 40.48852 20.94885 36991 ft 481 kts 145°
2026-04-18 08:12 40.43745 21.00580 36988 ft 482 kts 139°
2026-04-18 08:12 40.38719 21.06400 36990 ft 482 kts 140°
2026-04-18 08:13 40.33719 21.12153 36987 ft 481 kts 140°
2026-04-18 08:13 40.28684 21.17930 36986 ft 481 kts 140°
2026-04-18 08:14 40.23638 21.23705 36988 ft 481 kts 140°
2026-04-18 08:14 40.18601 21.29466 36981 ft 481 kts 140°
2026-04-18 08:15 40.13566 21.35221 36986 ft 481 kts 140°
2026-04-18 08:15 40.08528 21.40967 36981 ft 480 kts 140°
2026-04-18 08:16 40.03507 21.46668 36983 ft 480 kts 140°
2026-04-18 08:16 39.98470 21.52381 36985 ft 480 kts 140°
2026-04-18 08:17 39.93449 21.58122 36984 ft 480 kts 139°
2026-04-18 08:17 39.88538 21.64014 36985 ft 480 kts 138°
2026-04-18 08:18 39.83664 21.69940 36987 ft 479 kts 139°
2026-04-18 08:18 39.79595 21.74829 36984 ft 479 kts 139°
2026-04-18 08:19 39.74685 21.80671 36981 ft 478 kts 139°
2026-04-18 08:19 39.69765 21.86481 36976 ft 478 kts 139°
2026-04-18 08:20 39.64851 21.92293 36976 ft 478 kts 139°
2026-04-18 08:20 39.59942 21.98096 36974 ft 477 kts 139°
2026-04-18 08:21 39.55034 22.03898 36973 ft 477 kts 139°
2026-04-18 08:21 39.50124 22.09677 36972 ft 477 kts 139°
2026-04-18 08:22 39.45209 22.15446 36970 ft 477 kts 139°
2026-04-18 08:22 39.40289 22.21214 36971 ft 477 kts 139°
2026-04-18 08:23 39.35407 22.26938 36968 ft 477 kts 139°
2026-04-18 08:23 39.30488 22.32690 36971 ft 477 kts 140°
2026-04-18 08:24 39.25565 22.38435 36973 ft 476 kts 139°
2026-04-18 08:24 39.20644 22.44165 36974 ft 476 kts 140°
2026-04-18 08:25 39.15758 22.49831 36972 ft 476 kts 140°
2026-04-18 08:25 39.10839 22.55526 36975 ft 475 kts 140°
2026-04-18 08:26 39.05922 22.61207 36974 ft 475 kts 140°
2026-04-18 08:26 39.01013 22.66886 36971 ft 474 kts 140°
2026-04-18 08:27 38.96098 22.72548 36974 ft 474 kts 140°
2026-04-18 08:27 38.91189 22.78190 36972 ft 474 kts 140°
2026-04-18 08:28 38.86276 22.83826 36970 ft 474 kts 140°
2026-04-18 08:28 38.81358 22.89458 36967 ft 474 kts 140°
2026-04-18 08:29 38.76436 22.95086 36966 ft 474 kts 140°
2026-04-18 08:29 38.71516 23.00712 36971 ft 474 kts 140°
2026-04-18 08:30 38.66631 23.06289 36969 ft 473 kts 140°
2026-04-18 08:30 38.61711 23.11890 36965 ft 473 kts 140°
2026-04-18 08:31 38.56791 23.17472 36967 ft 473 kts 140°
2026-04-18 08:31 38.51866 23.23039 36959 ft 473 kts 140°
2026-04-18 08:32 38.46938 23.28600 36956 ft 472 kts 140°
2026-04-18 08:32 38.42020 23.34149 36954 ft 472 kts 140°
2026-04-18 08:33 38.37098 23.39693 36946 ft 472 kts 140°
2026-04-18 08:33 38.32178 23.45225 36928 ft 472 kts 140°
2026-04-18 08:34 38.27251 23.50757 36915 ft 472 kts 140°
2026-04-18 08:34 38.22310 23.56283 36901 ft 473 kts 140°
2026-04-18 08:35 38.17363 23.61812 36899 ft 474 kts 140°
2026-04-18 08:35 38.12434 23.67313 36902 ft 474 kts 140°
2026-04-18 08:36 38.07471 23.72837 36905 ft 474 kts 140°
2026-04-18 08:36 38.02512 23.78359 36929 ft 475 kts 140°
2026-04-18 08:37 37.97544 23.83869 36934 ft 474 kts 141°
2026-04-18 08:37 37.92563 23.89368 36934 ft 475 kts 141°
2026-04-18 08:38 37.87594 23.94872 36933 ft 475 kts 141°
2026-04-18 08:38 37.82616 24.00374 36929 ft 475 kts 141°
2026-04-18 08:39 37.77632 24.05856 36917 ft 475 kts 141°
2026-04-18 08:39 37.72640 24.11342 36914 ft 475 kts 141°
2026-04-18 08:40 37.67655 24.16812 36905 ft 475 kts 141°
2026-04-18 08:40 37.62664 24.22275 36890 ft 474 kts 141°
2026-04-18 08:41 37.57672 24.27722 36885 ft 474 kts 141°
2026-04-18 08:41 37.52343 24.32546 36885 ft 471 kts 150°
2026-04-18 08:42 37.46782 24.36915 36877 ft 471 kts 150°
2026-04-18 08:42 37.41220 24.41269 36881 ft 471 kts 150°
2026-04-18 08:43 37.35664 24.45612 36877 ft 470 kts 150°
2026-04-18 08:43 37.30152 24.49927 36868 ft 470 kts 150°
2026-04-18 08:44 37.24597 24.54264 36870 ft 470 kts 151°
2026-04-18 08:44 37.19043 24.58590 36867 ft 469 kts 151°
2026-04-18 08:45 37.13493 24.62911 36859 ft 469 kts 151°
2026-04-18 08:45 37.07948 24.67230 36854 ft 469 kts 151°
2026-04-18 08:46 37.02402 24.71538 36845 ft 469 kts 151°
2026-04-18 08:46 36.96842 24.75840 36839 ft 470 kts 151°
2026-04-18 08:47 36.91280 24.80128 36836 ft 470 kts 151°
2026-04-18 08:47 36.85758 24.84400 36836 ft 470 kts 151°
2026-04-18 08:48 36.80208 24.88700 36834 ft 469 kts 151°
2026-04-18 08:48 36.74654 24.92980 36834 ft 469 kts 151°
2026-04-18 08:48 36.71879 24.95115 36493 ft 468 kts 151°
2026-04-18 08:49 36.69111 24.97246 35801 ft 467 kts 151°
2026-04-18 08:49 36.66349 24.99373 35138 ft 467 kts 150°
2026-04-18 08:49 36.63586 25.01498 34488 ft 465 kts 151°
2026-04-18 08:49 36.60833 25.03607 33840 ft 464 kts 151°
2026-04-18 08:50 36.58083 25.05711 33035 ft 464 kts 151°
2026-04-18 08:50 36.55329 25.07815 32237 ft 465 kts 151°
2026-04-18 08:50 36.52565 25.09925 31458 ft 467 kts 150°
2026-04-18 08:50 36.49790 25.12042 30694 ft 469 kts 151°
2026-04-18 08:51 36.46998 25.14170 29965 ft 471 kts 150°
2026-04-18 08:51 36.44199 25.16299 29129 ft 472 kts 150°
2026-04-18 08:51 36.41403 25.18427 28274 ft 470 kts 150°
2026-04-18 08:51 36.38613 25.20548 27351 ft 470 kts 150°
2026-04-18 08:52 36.35871 25.22635 26466 ft 469 kts 150°
2026-04-18 08:52 36.33089 25.24752 25592 ft 468 kts 150°
2026-04-18 08:52 36.30325 25.26855 24863 ft 463 kts 149°
2026-04-18 08:52 36.27613 25.28915 24153 ft 452 kts 149°
2026-04-18 08:53 36.24935 25.30947 23464 ft 451 kts 149°
2026-04-18 08:53 36.22263 25.32972 22659 ft 449 kts 149°
2026-04-18 08:53 36.19603 25.34985 21865 ft 448 kts 149°
2026-04-18 08:53 36.16948 25.36991 21084 ft 447 kts 149°
2026-04-18 08:54 36.14326 25.38968 20325 ft 434 kts 149°
2026-04-18 08:54 36.11678 25.40684 19592 ft 429 kts 158°
2026-04-18 08:54 36.08867 25.41892 18880 ft 428 kts 163°
2026-04-18 08:54 36.06033 25.43023 18174 ft 427 kts 163°
2026-04-18 08:55 36.03208 25.44155 17384 ft 426 kts 163°
2026-04-18 08:55 36.00386 25.45269 16599 ft 426 kts 163°
2026-04-18 08:55 35.97596 25.46356 16277 ft 415 kts 163°
2026-04-18 08:55 35.94849 25.47422 15645 ft 413 kts 163°
2026-04-18 08:56 35.92112 25.48479 15031 ft 411 kts 163°
2026-04-18 08:56 35.89385 25.49528 14427 ft 410 kts 163°
2026-04-18 08:56 35.86677 25.50567 13830 ft 403 kts 163°
2026-04-18 08:56 35.84049 25.51574 13204 ft 390 kts 163°
2026-04-18 08:57 35.78908 25.53529 11914 ft 386 kts 163°
2026-04-18 08:57 35.76346 25.54496 11289 ft 385 kts 163°
2026-04-18 08:57 35.73800 25.55451 10923 ft 378 kts 163°
2026-04-18 08:58 35.71301 25.56388 10513 ft 373 kts 163°
2026-04-18 08:58 35.68837 25.57311 10145 ft 363 kts 163°
2026-04-18 08:58 35.66540 25.58169 10021 ft 336 kts 163°
2026-04-18 08:58 35.64372 25.58980 9782 ft 319 kts 163°
2026-04-18 08:59 35.62263 25.59766 9507 ft 314 kts 163°
2026-04-18 08:59 35.60183 25.60538 9148 ft 311 kts 163°
2026-04-18 08:59 35.58113 25.61303 8756 ft 310 kts 163°
2026-04-18 08:59 35.56046 25.62067 8377 ft 309 kts 163°
2026-04-18 09:00 35.53993 25.62825 8013 ft 308 kts 163°
2026-04-18 09:00 35.51943 25.63580 7644 ft 306 kts 163°
2026-04-18 09:00 35.49906 25.64327 7256 ft 305 kts 163°
2026-04-18 09:00 35.47875 25.65069 6867 ft 304 kts 163°
2026-04-18 09:01 35.45855 25.65805 6503 ft 302 kts 163°
2026-04-18 09:01 35.43841 25.66536 6113 ft 301 kts 163°
2026-04-18 09:01 35.41838 25.67263 5978 ft 300 kts 163°
2026-04-18 09:01 35.39836 25.67993 5974 ft 301 kts 163°
2026-04-18 09:02 35.37819 25.68649 5623 ft 298 kts 173°
2026-04-18 09:02 35.35779 25.68545 5205 ft 292 kts 198°
2026-04-18 09:02 35.33964 25.67561 4835 ft 281 kts 221°
2026-04-18 09:02 35.32625 25.65918 4490 ft 268 kts 242°
2026-04-18 09:03 35.31873 25.63932 4159 ft 255 kts 260°
2026-04-18 09:03 35.31694 25.61821 3848 ft 246 kts 277°
2026-04-18 09:03 35.32053 25.59812 3527 ft 239 kts 291°
2026-04-18 09:03 35.32609 25.57911 3237 ft 236 kts 291°
2026-04-18 09:04 35.33155 25.56008 3001 ft 233 kts 291°
2026-04-18 09:04 35.33685 25.54155 2997 ft 234 kts 291°
2026-04-18 09:04 35.34224 25.52274 3004 ft 234 kts 291°
2026-04-18 09:04 35.34759 25.50406 3005 ft 225 kts 290°
2026-04-18 09:05 35.35255 25.48669 3004 ft 207 kts 290°
2026-04-18 09:05 35.35709 25.47069 3004 ft 193 kts 289°
2026-04-18 09:05 35.35929 25.45458 3016 ft 193 kts 274°
2026-04-18 09:05 35.35757 25.43812 3014 ft 199 kts 258°
2026-04-18 09:06 35.35217 25.42226 3015 ft 203 kts 250°
2026-04-18 09:06 35.34610 25.40663 3013 ft 203 kts 250°
2026-04-18 09:06 35.34006 25.39104 3016 ft 200 kts 250°
2026-04-18 09:06 35.33427 25.37612 3023 ft 190 kts 250°
2026-04-18 09:07 35.32906 25.36153 3030 ft 182 kts 261°
2026-04-18 09:07 35.32802 25.34632 2868 ft 180 kts 279°
2026-04-18 09:07 35.32923 25.33093 2600 ft 183 kts 278°
2026-04-18 09:07 35.33037 25.31544 2363 ft 178 kts 279°
2026-04-18 09:08 35.33137 25.30102 2130 ft 161 kts 279°
2026-04-18 09:08 35.33222 25.28819 1897 ft 143 kts 280°
2026-04-18 09:08 35.33300 25.27653 1673 ft 131 kts 279°
2026-04-18 09:08 35.33375 25.26564 1471 ft 127 kts 280°
2026-04-18 09:09 35.33425 25.25854 1347 ft 126 kts 280°
2026-04-18 09:09 35.33501 25.24785 1158 ft 126 kts 279°
2026-04-18 09:09 35.33576 25.23715 969 ft 127 kts 279°
2026-04-18 09:09 35.33651 25.22641 772 ft 127 kts 279°
2026-04-18 09:10 35.33727 25.21571 556 ft 126 kts 279°
2026-04-18 09:10 35.33802 25.20504 373 ft 127 kts 282°
2026-04-18 09:10 35.33874 25.19428 166 ft 126 kts 280°
2026-04-18 09:10 35.33947 25.18391 113 ft 112 kts 280°
2026-04-18 09:11 35.34011 25.17535 157 ft 101 kts 283°
2026-04-18 09:11 35.34081 25.16502 628 ft 144 kts 278°
2026-04-18 09:11 35.34180 25.15204 1188 ft 158 kts 281°
2026-04-18 09:11 35.34291 25.13838 1869 ft 164 kts 280°
2026-04-18 09:12 35.34409 25.12452 2488 ft 169 kts 281°
2026-04-18 09:12 35.34546 25.10937 3046 ft 185 kts 281°
2026-04-18 09:12 35.34698 25.09328 3593 ft 194 kts 282°
2026-04-18 09:12 35.34910 25.07690 4008 ft 203 kts 294°
2026-04-18 09:13 35.35702 25.06380 3981 ft 191 kts 328°
2026-04-18 09:13 35.36956 25.05970 3703 ft 192 kts
2026-04-18 09:13 35.38209 25.06621 3367 ft 204 kts 30°
2026-04-18 09:13 35.39322 25.07735 3073 ft 206 kts 35°
2026-04-18 09:14 35.40405 25.08897 3028 ft 209 kts 35°
2026-04-18 09:14 35.41500 25.10090 3019 ft 212 kts 36°
2026-04-18 09:14 35.42333 25.11625 3033 ft 225 kts 68°
2026-04-18 09:14 35.42569 25.13546 3043 ft 229 kts 79°
2026-04-18 09:15 35.42742 25.15481 3034 ft 227 kts 79°
2026-04-18 09:15 35.42924 25.17404 3025 ft 227 kts 79°
2026-04-18 09:15 35.43109 25.19330 3038 ft 227 kts 78°
2026-04-18 09:15 35.43294 25.21253 3035 ft 227 kts 78°
2026-04-18 09:16 35.43477 25.23175 3030 ft 225 kts 79°
2026-04-18 09:16 35.43657 25.25088 3039 ft 227 kts 78°
2026-04-18 09:16 35.43840 25.27011 3036 ft 227 kts 79°
2026-04-18 09:16 35.44017 25.28902 3034 ft 226 kts 79°
2026-04-18 09:17 35.44195 25.30814 3025 ft 227 kts 78°
2026-04-18 09:17 35.44376 25.32738 3030 ft 228 kts 79°
2026-04-18 09:17 35.44465 25.34678 3012 ft 230 kts 95°
2026-04-18 09:17 35.43873 25.36499 3018 ft 234 kts 128°
2026-04-18 09:18 35.42613 25.37726 3020 ft 233 kts 161°
2026-04-18 09:18 35.41050 25.38022 3026 ft 225 kts 192°
2026-04-18 09:18 35.39533 25.37644 3025 ft 219 kts 198°
2026-04-18 09:18 35.38086 25.37257 3022 ft 209 kts 198°
2026-04-18 09:19 35.36684 25.36883 3024 ft 204 kts 199°
2026-04-18 09:19 35.35334 25.36514 3042 ft 190 kts 202°
2026-04-18 09:19 35.34217 25.35834 3023 ft 173 kts 226°
2026-04-18 09:19 35.33456 25.34794 3020 ft 157 kts 247°
2026-04-18 09:20 35.33061 25.33642 3049 ft 136 kts 264°
2026-04-18 09:20 35.32970 25.32564 3035 ft 122 kts 279°
2026-04-18 09:20 35.33041 25.31546 3035 ft 120 kts 282°
2026-04-18 09:20 35.33110 25.30542 3029 ft 116 kts 281°
2026-04-18 09:21 35.33188 25.29492 2674 ft 133 kts 281°
2026-04-18 09:21 35.33273 25.28341 2305 ft 142 kts 281°
2026-04-18 09:21 35.33360 25.27111 1919 ft 146 kts 281°
2026-04-18 09:21 35.33443 25.25895 1518 ft 140 kts 279°
2026-04-18 09:22 35.33520 25.24736 1125 ft 134 kts 279°
2026-04-18 09:22 35.33599 25.23646 789 ft 128 kts 281°
2026-04-18 09:22 35.33664 25.22598 497 ft 120 kts 279°
2026-04-18 09:22 35.33724 25.21577 431 ft 129 kts 281°
2026-04-18 09:23 35.33792 25.20521 306 ft 118 kts 283°
2026-04-18 09:23 35.33857 25.19559 153 ft 112 kts 282°
2026-04-18 09:23 35.33929 25.18628 111 ft 105 kts 282°
2026-04-18 09:23 35.34019 25.17612 517 ft 133 kts 280°
2026-04-18 09:24 35.34310 25.16456 1049 ft 138 kts 293°
2026-04-18 09:24 35.34932 25.15679 1209 ft 135 kts 342°
2026-04-18 09:24 35.35872 25.15817 1345 ft 142 kts
2026-04-18 09:24 35.36834 25.16209 1461 ft 156 kts 10°
2026-04-18 09:25 35.37980 25.16686 2125 ft 184 kts 12°
2026-04-18 09:25 35.39281 25.17246 2947 ft 210 kts 14°
2026-04-18 09:25 35.40660 25.17863 3027 ft 208 kts 18°
2026-04-18 09:25 35.41829 25.18925 3034 ft 216 kts 46°
2026-04-18 09:26 35.42430 25.20630 3044 ft 224 kts 75°
2026-04-18 09:26 35.42680 25.22498 3039 ft 225 kts 76°
2026-04-18 09:26 35.42937 25.24390 3031 ft 225 kts 75°
2026-04-18 09:26 35.43196 25.26284 3027 ft 225 kts 76°
2026-04-18 09:27 35.43456 25.28177 3034 ft 225 kts 75°
2026-04-18 09:27 35.43719 25.30067 3028 ft 225 kts 76°
2026-04-18 09:27 35.43981 25.31962 3032 ft 226 kts 77°
2026-04-18 09:27 35.43811 25.33873 3015 ft 232 kts 115°
2026-04-18 09:28 35.42779 25.35381 3024 ft 233 kts 146°
2026-04-18 09:28 35.41321 25.36190 3030 ft 230 kts 173°
2026-04-18 09:28 35.39756 25.36178 3029 ft 222 kts 200°
2026-04-18 09:28 35.38339 25.35498 3023 ft 218 kts 210°
2026-04-18 09:29 35.36957 25.34749 3025 ft 217 kts 210°
2026-04-18 09:29 35.35605 25.34021 3025 ft 207 kts 209°
2026-04-18 09:29 35.34331 25.33307 3019 ft 199 kts 218°
2026-04-18 09:29 35.33482 25.32133 2960 ft 176 kts 257°
2026-04-18 09:30 35.33257 25.30680 2528 ft 172 kts 274°
2026-04-18 09:30 35.33276 25.29279 2287 ft 152 kts 277°
2026-04-18 09:30 35.33337 25.28034 1949 ft 144 kts 279°
2026-04-18 09:30 35.33412 25.26827 1586 ft 139 kts 280°
2026-04-18 09:31 35.33475 25.25665 1181 ft 135 kts 278°
2026-04-18 09:31 35.33533 25.24544 806 ft 129 kts 278°
2026-04-18 09:31 35.33611 25.23482 562 ft 121 kts 279°
2026-04-18 09:31 35.33672 25.22464 430 ft 117 kts 279°
2026-04-18 09:32 35.33735 25.21465 329 ft 117 kts 278°
2026-04-18 09:32 35.33808 25.20470 252 ft 116 kts 280°
2026-04-18 09:32 35.33874 25.19489 148 ft 115 kts 278°
2026-04-18 09:32 35.33933 25.18545 98 ft 102 kts 281°
2026-04-18 09:33 35.33995 25.17895 90 ft 39 kts 273°
2026-04-18 09:33 35.34008 25.17592 89 ft 35 kts 274°
2026-04-18 09:33 35.34030 25.17313 87 ft 31 kts 272°
2026-04-18 09:33 35.34004 25.17132 88 ft 18 kts 248°
2026-04-18 09:34 35.33988 25.17088 89 ft 0 kts 245°
2026-04-18 09:34 35.33987 25.17085 89 ft 1 kts 245°
2026-04-18 09:34 35.33980 25.17069 88 ft 3 kts 239°
2026-04-18 09:35 35.33963 25.17049 88 ft 3 kts 213°
2026-04-18 09:35 35.33946 25.17048 88 ft 1 kts 160°
2026-04-18 09:35 35.33939 25.17066 89 ft 3 kts 101°
2026-04-18 09:35 35.33936 25.17130 87 ft 9 kts 93°
2026-04-18 09:36 35.33932 25.17205 87 ft 8 kts 94°
2026-04-18 09:36 35.33927 25.17276 87 ft 9 kts 93°
2026-04-18 09:36 35.33922 25.17345 87 ft 8 kts 101°
2026-04-18 09:36 35.33880 25.17376 87 ft 7 kts 175°
2026-04-18 09:37 35.33829 25.17373 86 ft 7 kts 185°
2026-04-18 09:37 35.33784 25.17354 86 ft 7 kts 224°
2026-04-18 09:37 35.33777 25.17298 87 ft 6 kts 272°
2026-04-18 09:37 35.33777 25.17295 87 ft 0 kts 272°
2026-04-18 09:39 35.33796 25.17308 89 ft 0 kts
2026-04-18 09:39 35.33795 25.17308 89 ft 0 kts